Regional Weather Roundup
Issued by NWS

Home | Current Version | Previous Version | Graphics & Text | Print | Product List | Glossary On
Versions: 1 2 3 4 5 6 7 8 9 10 11 12 13 14 15 16 17 18 19 20 21 22 23 24 25 26 27 28 29 30 31 32 33 34 35 36 37 38 39 40 41 42 43 44 45 46 47 48 49 50
000
ASUS43 KMKX 211520
RWRWI

WISCONSIN REGIONAL WEATHER ROUNDUP
NATIONAL WEATHER SERVICE MILWAUKEE/SULLIVAN WI
1000 AM CDT MON MAY 21 2018

NOTE: "FAIR" INDICATES FEW OR NO CLOUDS BELOW 12,000 FEET WITH NO
SIGNIFICANT WEATHER AND/OR OBSTRUCTIONS TO VISIBILITY.

WIZ001-002-006>008-014>016-023>028-211600-
NORTHWEST WISCONSIN

CITY           SKY/WX    TMP DP  RH WIND       PRES   REMARKS
SUPERIOR ARPT  FAIR      56  36  45 NE6       30.15F
ASHLAND        FAIR      65  36  34 CALM      30.15F
HAYWARD        FAIR      63  35  35 E9        30.14F
SIREN          CLOUDY    63  32  32 E6        30.13S
CUMBERLAND     CLOUDY    59  28  31 SE8       30.13F
RICE LAKE      PTSUNNY   61  18  18 E9        30.15S
CHETEK         PTSUNNY   58  33  38 E14       30.13F
LADYSMITH      FAIR      63  31  30 E8        30.16F
EAU CLAIRE     FAIR      57  35  43 E10       30.12F
MENOMONIE      FAIR      59  37  44 E9        30.12F
NEW RICHMOND   CLOUDY    61  34  36 E9        30.11S
OSCEOLA        CLOUDY    62  32  33 SE10      30.13F
$$

WIZ003>005-009-010-017-018-211600-
NORTH CENTRAL WISCONSIN

CITY           SKY/WX    TMP DP  RH WIND       PRES   REMARKS
MANITOWISH WTR FAIR      63  33  31 SE5       30.16F
ARBOR VITAE    FAIR      62  32  32 SE8       30.16F
WOODRUFF       FAIR      62  32  32 SE8       30.16F
RHINELANDER    FAIR      64  26  23 E10       30.17F
EAGLE RIVER    FAIR      62  26  24 SE6       30.17F
LAND O LAKES   FAIR      64  26  23 SE8       30.19F
PHILLIPS       FAIR      61  32  33 E8        30.15F
TOMAHAWK       FAIR      61  28  28 SE5       30.17F
MEDFORD        CLOUDY    56  40  54 SE9       30.15F
MERRILL        FAIR      61  41  47 S8        30.18S HAZE
$$

WIZ029-030-035-036-043>047-211600-
CENTRAL WISCONSIN

CITY           SKY/WX    TMP DP  RH WIND       PRES   REMARKS
WAUSAU         FAIR      62  42  47 SE13      30.15F
MOSINEE        PTSUNNY   59  43  55 E10G18    30.17F
MARSHFIELD     CLOUDY    55  41  59 E12       30.15S
STEVENS POINT    N/A    N/A N/A N/A SE8       30.17
WAUPACA        CLOUDY    58  44  60 E6        30.18F
WAUTOMA        CLOUDY    55  48  76 E8        30.15F
WISC RAPIDS    CLOUDY    59  43  55 E7        30.16F
CAMP DOUGLAS   CLOUDY    55  46  71 E9        30.13F
$$

WIZ011>013-019>022-031-037>040-048>050-211600-
NORTHEAST WISCONSIN

CITY           SKY/WX    TMP DP  RH WIND       PRES   REMARKS
ANTIGO         FAIR      60  43  53 SE12      30.19S
SHAWANO        PTSUNNY   61  38  43 E6        30.20S
OCONTO         FAIR      55  39  54 NE6       30.21R
STURGEON BAY   FAIR      52  45  77 SE9       30.22R
GREEN BAY      PTSUNNY   57  47  69 E7        30.20R
MANITOWOC      CLOUDY    51  48  89 SE8       30.21
APPLETON       CLOUDY    54  43  66 SE7       30.18R
CLINTONVILLE   PTSUNNY   58  40  51 E7        30.20S
OSHKOSH        CLOUDY    55  50  83 E10       30.16F
$$

WIZ032>034-041-042-053>061-211600-
SOUTHWEST WISCONSIN

CITY           SKY/WX    TMP DP  RH WIND       PRES   REMARKS
LA CROSSE      LGT RAIN  54  47  77 E6        30.10F
SPARTA         LGT RAIN  54  45  72 E8        30.12F
VIROQUA        CLOUDY    51  46  83 E9        30.10S
BOSCOBEL       CLOUDY    53  50  89 NE6       30.09F
PRAIRIE DU CHI LGT RAIN  53  50  91 CALM      30.08S
PLATTEVILLE    CLOUDY    54  54 100 E10       30.08S
$$

WIZ056-057-062-063-064-067-068-211600-
SOUTH CENTRAL WISCONSIN

CITY           SKY/WX    TMP DP  RH WIND       PRES   REMARKS
REEDSBURG      CLOUDY    54  48  80 E7        30.11F
BARABOO/DELLS  CLOUDY    54  47  80 E8        30.12F
LONE ROCK      LGT RAIN  54  51  90 E9        30.10F
MINERAL POINT  LGT RAIN  54  54 100 E13       30.08S
MADISON        LGT RAIN  52  51  97 E7        30.11F FOG
MIDDLETON      CLOUDY    54  52  93 E7        30.11F
WATERTOWN      LGT RAIN  53  53 100 E10       30.11F
MONROE         DRIZZLE   52  52 100 E8        30.09F
JANESVILLE     LGT RAIN  55  55 100 E8        30.11R
$$

WIZ051-052-058>065-066-070>072-211600-
SOUTHEAST WISCONSIN

CITY           SKY/WX    TMP DP  RH WIND       PRES   REMARKS
MILWAUKEE      RAIN      49  48  97 E6        30.16S FOG
WAUKESHA       LGT RAIN  50  48  93 E8        30.16  FOG
MILWAUKEE/TIMM DRIZZLE   48  46  93 E8        30.18F FOG
RACINE         LGT RAIN  51  51 100 E13       30.16F VSB 3/4
BURLINGTON     RAIN      51  50  96 NE6       30.12F
KENOSHA        RAIN      54  53  97 E16       30.13F FOG
FOND DU LAC    LGT RAIN  55  50  83 E7        30.15F
SHEBOYGAN      LGT RAIN  52  50  93 E6        30.17F FOG
WEST BEND      RAIN      50  50 100 E8        30.16F
JUNEAU         LGT RAIN  52  52  98 E6        30.14F
$$

LSZ147-162-211600-
LAKE SUPERIOR

STATION/POSITION TIME  TEMP    WIND        PRES    WAVE
                       AIR SEA DIR/SP/G            HT/PER
                 (UTC) (F)     (DEG/KT/KT) (MB)    (FT/S)
W MID LAKE BUOY  1450   42 36  150/  6/  6 1022.0F   0
DEVILS ISLAND    1500   54     170/  1/  3 1021.3F
SAXON HARBOR     1440   50      60/  5/  6 1021.0S
$$

LMZ867-665-643>646-211600-
LAKE MICHIGAN

STATION/POSITION TIME  TEMP    WIND        PRES    WAVE
                       AIR SEA DIR/SP/G            HT/PER
                 (UTC) (F)     (DEG/KT/KT) (MB)    (FT/S)
NORTHPORT PIER   1440   46                 1023.0S
KEWAUNEE LAKESHO 1454   46      30/  7/  9 1022.3S
SHEBOYGAN LAKESH 1500   48      70/  4/  5 1022.2F
PORT WASHINGTON  1440   49      60/  6/  9 1023.0F
MILWAUKEE LAKESH 1500   46      50/  6/  7   N/A
KENOSHA   LAKESH 1500   49                 1020.0
$$

TC  - TEMPERATURE IN CELSIUS
VSB - VISIBILITY IN STATUTE MILES
WCI - WIND CHILL INDEX
HX  - HEAT INDEX




USA.gov is the U.S. government's official web portal to all federal, state and local government web resources and services.